Volver al catálogo

FENGYUN 1C DEB

LostPO
NORAD 36144·DEBRIS·🇨🇳 China

Lanzado May 10, 1999 desde Taiyuan Satellite Launch Center

Loading…

Próximos Pases (próximas 24 horas)

TLE

ObsoletoSource: Space-Track

Época: Jul 1, 2014, 04:43 UTC

1 36144U 99025DRR 14182.19675061  .00004408  00000-0  25441-2 0  9998
2 36144  98.4132 325.5755 0146948  51.8056  69.7788 14.04214169269145

Sigue FENGYUN 1C DEB en tiempo real con AllMySat

Download on the App Store